Probability
52 55 45 10 0 0 0 0 0 0 0 0 0 0 0 0 0 0 0 10 23 35 61 71 68 74 74 65 58 55 58 58 58 48 45 42 42 42 39 35 39 45 42 45 58 61 71 68 65
45 55 42 3 0 0 0 0 0 0 3 0 0 0 0 0 0 0 6 6 19 32 32 45 58 61 55 55 52 52 48 45 35 26 29 29 26 26 23 26 29 29 32 35 39 45 48 52 61
58 68 13 3 0 0 0 0 0 0 0 0 0 0 0 3 3 3 10 16 19 23 35 42 55 55 48 45 45 39 32 29 23 23 23 19 19 19 23 16 19 19 16 26 35 39 35 32 35
48 13 3 3 0 0 0 0 0 0 0 0 0 0 0 3 3 6 13 10 16 23 29 39 48 52 42 39 32 29 23 16 16 13 19 13 6 13 13 10 13 16 16 16 23 29 35 29 23
32 6 0 0 0 0 0 0 0 0 0 0 0 0 0 0 6 6 13 13 16 19 23 29 45 35 35 29 26 23 16 16 13 13 13 6 6 3 6 10 13 19 16 16 23 23 26 26 29
6 3 3 0 0 0 0 0 0 0 0 0 0 0 0 0 6 6 6 3 6 10 13 26 29 29 23 26 23 16 10 6 6 3 0 0 0 3 6 6 10 10 16 19 19 16 16 19 26
0 0 0 0 0 0 0 0 0 0 0 0 0 0 0 0 3 3 3 3 3 6 10 13 10 23 23 16 6 3 3 3 3 0 0 0 0 0 0 0 3 6 13 13 13 13 16 13 23
6 0 0 0 0 0 0 0 0 0 0 0 0 0 0 0 0 0 3 3 3 3 6 3 3 3 3 3 6 3 6 3 0 3 3 3 3 3 0 0 3 0 6 13 13 13 13 16 19
0 0 0 0 0 0 0 0 0 0 0 0 0 0 0 0 0 0 0 0 0 0 3 3 3 3 3 3 3 6 6 6 3 0 3 3 0 0 0 0 3 6 3 6 13 13 10 16 16
0 0 0 0 0 0 0 0 0 0 0 0 0 3 0 0 0 0 0 0 0 0 0 3 3 3 3 3 3 3 3 0 0 0 0 0 0 0 0 0 10 10 6 3 10 10 16 10 3
0 0 0 0 0 0 0 0 0 0 0 0 3 3 0 0 0 0 0 0 0 0 0 0 0 0 3 3 3 0 0 0 0 0 0 0 0 0 0 0 0 0 0 0 0 0 3 3 0
0 0 0 3 3 0 0 0 0 0 0 0 3 3 3 0 0 0 0 0 0 0 0 0 0 0 0 0 3 0 0 0 0 0 0 0 0 0 0 0 0 0 0 0 0 0 0 0 0
0 0 0 6 3 0 0 0 0 0 0 3 3 3 3 0 0 0 0 0 0 0 0 0 0 0 0 0 0 0 0 0 0 0 0 0 0 0 0 0 0 0 0 0 0 0 0 0 0
3 3 0 6 3 0 0 0 0 0 0 3 3 3 3 3 0 0 0 0 0 0 0 0 0 0 0 0 0 0 0 0 0 0 0 0 0 0 0 0 0 0 0 0 0 0 0 0 0
0 0 0 0 3 0 0 0 0 0 0 3 0 0 0 0 3 3 0 0 0 0 0 0 0 0 0 0 0 0 0 0 0 0 0 0 0 0 0 0 0 0 0 0 0 0 0 0 0
0 0 0 0 0 0 0 0 0 0 0 0 0 0 0 0 0 3 0 0 0 0 0 0 0 0 0 0 0 0 0 0 0 0 0 0 0 0 0 0 0 0 0 0 0 0 0 0 0
0 0 0 0 0 0 0 0 0 0 0 0 0 0 0 0 0 0 0 0 0 0 0 0 0 0 0 0 0 0 0 0 0 0 0 0 0 0 0 0 0 0 0 0 0 0 0 0 0
0 0 0 0 0 0 0 0 0 0 0 0 0 0 0 0 0 0 0 0 0 0 0 0 0 0 0 0 0 0 0 0 0 0 0 0 0 0 0 0 0 0 0 0 0 0 0 0 0
0 0 0 0 0 0 0 0 0 0 0 0 0 0 0 0 0 0 0 0 0 0 0 0 0 0 0 0 0 0 0 0 0 0 0 0 0 0 0 0 0 0 0 0 0 0 0 0 0
0 0 0 0 0 0 0 0 0 0 0 0 0 0 0 0 0 0 0 0 0 0 0 0 0 0 0 0 0 0 0 0 0 0 0 0 0 0 0 0 0 0 0 0 0 0 0 0 0
0 0 0 0 0 0 0 0 0 0 0 0 0 0 0 0 0 0 0 0 0 0 0 0 0 0 0 0 0 0 0 0 0 0 0 0 0 0 0 0 0 0 0 0 0 0 0 0 0
0 0 0 0 0 0 0 0 0 0 0 0 0 0 0 0 0 0 0 0 0 0 0 0 0 0 0 0 0 0 0 0 0 0 0 0 0 0 0 0 0 0 0 0 0 0 0 0 0
0 0 0 0 0 0 0 0 0 0 0 0 0 0 0 0 0 0 0 0 0 0 0 0 0 0 0 0 0 0 0 0 0 0 0 0 0 0 0 0 0 0 0 0 0 0 0 0 0
0 0 0 0 0 0 0 0 0 0 0 0 0 0 0 0 0 0 0 0 0 0 0 0 0 0 0 0 0 0 0 0 0 0 0 0 0 0 0 0 0 0 0 0 0 0 0 0 0
0 0 0 0 0 0 0 0 0 0 0 0 0 0 0 0 0 0 0 0 0 0 0 0 0 0 0 0 0 0 0 0 0 0 0 0 0 0 0 0 0 0 0 0 0 0 0 0 0
0 0 0 0 0 0 0 0 0 0 0 0 0 0 0 0 0 0 0 0 0 0 0 0 0 0 0 0 0 0 0 0 0 0 0 0 0 0 0 0 0 0 0 0 0 0 0 0 0
0 0 0 0 0 0 0 0 0 0 0 0 0 0 0 0 0 0 0 0 0 0 0 0 0 0 0 0 0 0 0 0 0 0 0 0 0 0 0 0 0 0 0 0 0 0 0 0 0
0 0 0 0 0 0 0 0 0 0 0 0 0 0 0 0 0 0 0 0 0 0 0 0 0 0 0 0 0 0 0 0 0 0 0 0 0 0 0 0 0 0 0 0 0 0 0 0 0
0 0 0 0 0 0 0 0 0 0 0 0 0 0 0 0 0 0 0 0 0 0 0 0 0 0 0 0 0 0 0 0 0 0 0 0 0 0 0 0 0 0 0 0 0 0 0 0 0
0 0 0 0 0 0 0 0 0 0 0 0 0 0 0 0 0 0 0 0 0 0 0 0 0 0 0 0 0 0 0 0 0 0 0 0 0 0 0 0 0 0 0 0 0 0 0 0 0
Height
5876 5876 5877 5878 5878 5878 5877 5878 5878 5879 5880 5880 5881 5882 5883 5885 5886 5888 5886 5884 5884 5884 5884 5884 5884 5884 5883 5883 5882 5881 5880 5880 5879 5877 5876 5875 5874 5872 5871 5870 5868 5867 5866 5865 5864 5863 5862 5862 5861
5875 5875 5877 5877 5876 5877 5877 5877 5878 5879 5880 5880 5881 5882 5883 5884 5884 5885 5883 5883 5884 5884 5884 5884 5883 5883 5883 5882 5882 5881 5880 5879 5878 5876 5875 5874 5873 5871 5870 5868 5867 5866 5865 5863 5862 5861 5860 5859 5859
5873 5874 5876 5876 5875 5876 5877 5877 5878 5879 5879 5880 5881 5882 5883 5884 5884 5884 5883 5883 5884 5884 5883 5883 5883 5883 5882 5882 5881 5880 5879 5878 5877 5875 5874 5873 5871 5870 5868 5867 5865 5864 5863 5861 5860 5859 5858 5857 5857
5871 5873 5874 5875 5875 5876 5876 5877 5877 5878 5879 5880 5880 5881 5882 5883 5883 5883 5883 5883 5883 5883 5883 5883 5882 5882 5882 5881 5880 5879 5878 5877 5876 5874 5873 5871 5870 5868 5867 5865 5864 5862 5861 5859 5858 5857 5856 5855 5854
5869 5871 5873 5873 5873 5874 5875 5876 5877 5878 5879 5880 5880 5881 5882 5882 5882 5882 5883 5883 5883 5883 5883 5882 5882 5882 5881 5880 5879 5878 5877 5876 5874 5873 5871 5870 5868 5867 5865 5863 5862 5860 5859 5857 5856 5855 5854 5853 5852
5868 5870 5871 5871 5872 5873 5874 5876 5877 5878 5879 5880 5881 5881 5882 5882 5882 5882 5882 5882 5883 5882 5882 5882 5881 5881 5880 5879 5878 5877 5876 5875 5873 5872 5870 5868 5867 5865 5863 5861 5860 5858 5857 5855 5854 5853 5852 5851 5850
5866 5868 5869 5870 5871 5873 5874 5875 5877 5878 5878 5880 5880 5881 5881 5881 5882 5882 5882 5882 5882 5882 5882 5881 5881 5880 5879 5878 5877 5876 5875 5873 5872 5870 5868 5867 5865 5863 5861 5859 5858 5856 5854 5853 5852 5850 5849 5848 5847
5863 5866 5867 5869 5870 5871 5873 5874 5875 5876 5877 5879 5880 5880 5880 5881 5881 5882 5881 5881 5881 5881 5881 5881 5880 5879 5878 5877 5876 5875 5874 5872 5870 5869 5867 5865 5863 5861 5859 5858 5856 5854 5852 5851 5849 5848 5847 5846 5845
5861 5864 5865 5867 5869 5871 5872 5873 5875 5875 5877 5878 5878 5879 5880 5880 5880 5881 5881 5881 5881 5881 5880 5880 5879 5878 5877 5876 5875 5874 5872 5871 5869 5867 5865 5863 5861 5859 5857 5856 5854 5852 5850 5849 5847 5846 5844 5843 5842
5859 5861 5863 5865 5867 5869 5871 5872 5873 5875 5876 5877 5877 5878 5879 5879 5879 5880 5880 5880 5880 5880 5880 5879 5878 5877 5876 5875 5874 5872 5871 5869 5868 5866 5864 5862 5860 5858 5856 5854 5852 5850 5848 5846 5845 5843 5842 5840 5839
5856 5859 5861 5863 5865 5867 5869 5871 5872 5874 5875 5876 5876 5877 5877 5878 5878 5878 5879 5879 5879 5879 5879 5878 5877 5876 5875 5874 5873 5871 5870 5868 5866 5864 5862 5860 5858 5856 5854 5853 5850 5848 5846 5844 5842 5841 5839 5838 5836
5855 5858 5860 5862 5864 5866 5867 5869 5871 5872 5874 5875 5875 5876 5876 5876 5877 5877 5878 5878 5878 5878 5877 5876 5875 5875 5874 5872 5871 5870 5868 5867 5865 5863 5861 5859 5857 5855 5853 5851 5848 5846 5844 5842 5840 5838 5836 5835 5833
5853 5856 5858 5861 5863 5865 5867 5868 5870 5871 5872 5874 5874 5875 5876 5876 5876 5876 5876 5876 5876 5876 5875 5874 5874 5873 5872 5871 5870 5869 5867 5865 5864 5862 5860 5858 5856 5854 5851 5849 5846 5844 5842 5839 5837 5835 5833 5832 5831
5852 5855 5857 5860 5862 5864 5866 5867 5869 5870 5871 5872 5873 5874 5875 5875 5875 5875 5875 5875 5875 5874 5874 5873 5872 5872 5871 5870 5869 5867 5866 5864 5862 5861 5859 5856 5854 5852 5850 5847 5845 5842 5840 5837 5835 5833 5831 5829 5828
5850 5854 5856 5859 5861 5863 5865 5867 5868 5869 5869 5871 5872 5872 5873 5874 5874 5874 5874 5873 5873 5873 5872 5872 5871 5870 5870 5868 5867 5866 5864 5863 5861 5860 5858 5855 5853 5851 5848 5846 5843 5841 5838 5835 5833 5831 5829 5827 5826
5849 5852 5855 5858 5860 5862 5866 5866 5867 5868 5869 5869 5870 5871 5872 5872 5872 5872 5872 5872 5872 5872 5871 5870 5870 5869 5868 5867 5866 5865 5863 5862 5860 5859 5857 5855 5852 5850 5847 5845 5842 5839 5836 5834 5831 5829 5827 5825 5824
5848 5851 5854 5857 5859 5861 5863 5865 5866 5867 5867 5868 5869 5870 5870 5871 5871 5871 5871 5871 5870 5870 5870 5869 5868 5867 5867 5866 5864 5863 5862 5861 5859 5858 5856 5854 5852 5849 5847 5844 5841 5838 5835 5832 5830 5828 5826 5824 5822
5848 5851 5854 5856 5858 5860 5862 5863 5865 5865 5866 5867 5868 5868 5869 5869 5869 5869 5869 5869 5869 5869 5868 5868 5867 5866 5865 5864 5863 5862 5861 5860 5858 5857 5855 5853 5851 5848 5846 5843 5840 5837 5834 5831 5829 5827 5824 5822 5821
5847 5850 5853 5855 5856 5859 5860 5862 5863 5864 5865 5865 5866 5867 5867 5868 5868 5868 5868 5868 5867 5867 5867 5867 5866 5865 5864 5863 5862 5861 5860 5859 5857 5856 5854 5852 5850 5847 5845 5842 5839 5836 5833 5831 5828 5826 5823 5821 5819
5846 5849 5851 5854 5856 5858 5859 5861 5862 5862 5863 5864 5865 5865 5866 5866 5866 5866 5866 5866 5866 5866 5866 5866 5865 5864 5863 5862 5861 5860 5859 5858 5856 5854 5853 5851 5849 5846 5844 5841 5838 5836 5833 5830 5827 5825 5823 5820 5818
5846 5848 5851 5853 5855 5857 5858 5860 5860 5862 5862 5863 5864 5864 5864 5865 5865 5865 5865 5865 5865 5865 5865 5864 5864 5863 5862 5861 5860 5859 5858 5857 5855 5853 5852 5850 5848 5845 5843 5840 5838 5835 5832 5829 5827 5824 5822 5819 5817
5846 5848 5850 5852 5854 5856 5858 5859 5860 5861 5862 5862 5862 5863 5863 5863 5863 5863 5863 5863 5863 5863 5863 5863 5862 5862 5861 5860 5859 5859 5857 5856 5854 5852 5851 5849 5847 5844 5842 5839 5837 5834 5832 5829 5826 5823 5821 5818 5816
5845 5847 5849 5851 5853 5855 5857 5858 5860 5860 5860 5861 5861 5861 5861 5861 5861 5861 5861 5861 5861 5861 5861 5861 5861 5860 5860 5859 5858 5857 5856 5854 5853 5851 5849 5848 5845 5843 5841 5838 5836 5833 5831 5828 5825 5823 5820 5817 5815
5845 5847 5849 5851 5853 5855 5856 5858 5859 5859 5859 5859 5859 5860 5860 5860 5860 5860 5860 5859 5859 5859 5859 5859 5859 5859 5858 5858 5857 5856 5855 5853 5851 5850 5848 5846 5844 5842 5840 5837 5835 5832 5829 5827 5824 5821 5819 5816 5814
5845 5848 5849 5850 5852 5854 5855 5856 5859 5858 5858 5858 5858 5858 5858 5858 5858 5858 5858 5858 5858 5858 5858 5858 5858 5857 5857 5856 5855 5854 5853 5852 5850 5848 5847 5845 5843 5840 5838 5836 5833 5831 5828 5825 5823 5820 5817 5814 5812
5845 5848 5850 5851 5852 5853 5854 5855 5858 5857 5857 5857 5857 5857 5857 5857 5857 5857 5857 5856 5856 5856 5856 5856 5856 5856 5855 5855 5854 5853 5851 5850 5849 5847 5845 5843 5841 5839 5836 5834 5831 5829 5826 5823 5821 5818 5815 5813 5810
5845 5847 5849 5851 5852 5853 5853 5855 5856 5856 5856 5856 5856 5856 5856 5856 5855 5856 5855 5855 5855 5855 5855 5855 5854 5854 5853 5853 5852 5851 5850 5848 5847 5845 5843 5841 5839 5836 5834 5832 5829 5827 5824 5821 5818 5816 5813 5810 5808
5846 5847 5849 5850 5851 5852 5853 5853 5855 5855 5855 5855 5854 5854 5854 5854 5854 5854 5854 5853 5853 5853 5853 5853 5853 5852 5852 5851 5850 5849 5848 5846 5845 5843 5841 5839 5836 5834 5831 5829 5826 5824 5821 5818 5816 5813 5810 5808 5805
5847 5848 5848 5850 5851 5851 5852 5855 5854 5853 5853 5853 5853 5853 5853 5852 5852 5852 5851 5851 5851 5851 5851 5851 5851 5850 5850 5849 5848 5847 5845 5844 5842 5840 5838 5836 5833 5831 5828 5826 5823 5820 5817 5814 5812 5809 5807 5804 5802
5846 5847 5848 5850 5850 5850 5851 5855 5852 5852 5852 5851 5851 5851 5850 5850 5850 5850 5849 5849 5849 5849 5849 5849 5848 5848 5847 5846 5845 5844 5842 5841 5839 5837 5835 5832 5830 5827 5825 5822 5819 5816 5813 5810 5807 5805 5802 5800 5798
Wind_Speed
7 6 5 4 4 4 4 4 5 5 6 6 6 5 4 3 2 3 2 1 1 2 3 3 4 4 5 6 6 6 7 7 7 7 7 8 8 8 8 9 9 9 9 10 10 11 12 12 12
9 7 6 5 5 4 4 4 4 5 6 6 5 5 4 3 2 2 2 0 1 2 3 4 4 4 5 6 6 6 6 7 7 7 7 8 8 9 9 9 10 10 10 10 11 11 12 12 12
9 8 6 5 5 4 4 3 4 5 5 5 4 4 4 3 2 2 1 0 2 2 3 4 4 4 5 6 6 6 6 7 7 8 8 9 9 9 10 10 10 11 11 11 11 12 12 12 12
11 9 8 8 7 6 5 4 4 6 5 5 4 4 3 3 3 2 1 0 1 2 3 3 4 4 5 6 6 6 6 7 8 8 9 9 10 10 11 11 12 12 12 12 11 11 11 11 12
12 11 9 9 9 7 6 6 6 5 5 6 5 4 3 3 3 2 1 0 1 2 3 3 4 5 5 5 6 6 6 7 8 8 9 10 10 11 11 12 12 12 12 11 11 11 11 11 11
13 13 12 10 9 7 7 7 6 6 5 5 4 4 3 2 3 2 1 0 1 1 2 4 4 5 5 5 5 6 7 8 9 9 10 10 11 11 11 12 12 12 12 11 11 11 11 11 11
14 14 13 11 10 9 7 6 6 6 4 4 4 3 2 2 2 2 1 1 0 1 2 3 4 4 5 5 6 6 7 8 9 10 10 11 11 12 12 12 12 12 12 12 11 11 11 11 11
15 15 14 13 11 9 7 6 6 6 4 3 4 3 2 1 1 1 1 1 0 1 2 3 3 4 4 5 6 7 8 9 9 10 10 11 11 12 12 12 12 12 12 12 11 11 11 11 12
15 14 15 14 13 11 9 7 6 5 4 3 3 3 2 2 1 1 0 0 0 1 2 3 3 4 5 6 6 7 8 9 10 10 11 11 11 12 12 12 12 12 12 12 11 11 11 11 11
17 15 14 13 13 11 9 8 6 5 4 3 2 2 2 2 2 1 1 1 1 2 2 3 4 4 5 6 6 7 8 9 10 10 11 11 11 12 12 12 12 12 12 12 12 12 12 11 11
18 15 12 11 12 11 9 8 6 5 4 3 2 2 2 2 2 2 1 1 2 2 3 3 3 4 5 6 7 7 8 9 9 10 11 11 11 11 12 12 13 12 12 13 13 12 12 12 11
17 15 13 10 11 11 10 8 5 4 3 3 2 1 1 1 2 3 3 2 2 3 3 4 4 4 5 6 7 7 7 8 9 10 11 11 11 12 12 13 13 13 13 13 13 13 12 11 11
16 15 13 11 11 9 8 8 6 4 4 4 3 1 1 2 2 3 3 3 2 3 3 4 5 5 5 6 6 6 7 8 9 10 10 11 11 12 12 13 14 14 13 13 13 12 12 11 11
17 14 12 11 11 9 9 8 6 6 5 5 3 2 2 2 3 3 3 3 2 3 4 4 4 5 5 6 6 6 6 7 9 10 11 11 12 12 13 13 13 13 13 13 13 12 12 11 11
17 15 13 11 10 10 8 7 6 6 5 5 4 3 2 3 3 3 3 3 2 3 4 4 4 4 5 5 6 5 6 7 8 9 11 12 12 12 13 13 13 13 13 13 13 12 11 11 10
17 16 14 12 11 10 9 7 6 6 5 5 4 3 3 3 3 3 3 3 2 3 3 4 4 5 5 5 5 5 6 6 7 9 10 11 12 12 13 13 14 14 14 14 13 12 11 10 10
17 15 14 12 11 10 9 7 6 5 5 4 5 4 4 3 3 3 3 3 2 3 3 3 4 4 4 5 5 5 6 6 7 9 10 11 12 12 13 14 14 14 14 14 13 12 11 11 10
16 15 14 12 11 10 8 7 5 5 4 4 4 4 4 3 2 3 3 3 3 3 3 3 3 3 4 4 4 5 6 6 7 8 10 11 12 13 14 14 14 15 14 14 13 13 12 11 10
16 16 14 12 11 9 7 7 6 5 4 4 4 4 4 3 3 3 4 3 3 2 2 2 2 2 3 4 4 4 5 6 7 8 9 10 11 13 14 14 15 15 15 14 13 13 12 12 11
16 16 14 13 11 9 7 6 6 5 5 3 3 3 4 3 4 3 3 2 2 2 1 1 2 2 3 4 4 5 6 7 8 9 10 11 12 13 14 14 15 15 15 15 14 13 13 12 11
15 14 13 12 10 9 8 7 7 5 4 3 3 3 3 3 3 3 3 3 3 3 2 1 1 2 3 4 4 5 6 7 8 9 9 10 11 12 13 14 14 15 15 15 15 14 14 13 12
14 12 11 11 10 10 9 8 7 5 4 3 3 3 3 3 3 3 3 3 3 3 2 2 2 2 3 4 5 5 6 7 8 9 10 10 11 12 13 14 14 15 16 16 15 15 15 14 13
14 13 11 11 10 10 9 7 7 5 3 3 2 2 2 2 3 3 3 3 3 3 2 2 2 3 3 4 5 5 6 7 8 8 9 10 11 12 13 14 15 15 16 16 16 15 15 15 13
14 13 12 11 10 10 9 7 6 5 4 2 1 2 2 2 3 2 2 2 2 2 2 2 3 3 3 4 4 5 6 8 9 9 10 11 12 13 14 14 15 16 16 17 16 16 16 15 14
14 14 13 12 12 10 9 8 6 5 3 2 1 1 2 2 2 2 2 2 2 2 3 3 2 3 3 4 5 6 7 8 9 10 11 12 12 13 14 15 16 16 17 17 18 17 17 16 15
13 14 13 13 12 11 10 8 6 4 2 1 1 1 2 2 2 2 2 2 2 2 3 3 3 3 4 5 6 7 8 9 9 10 11 12 13 14 15 15 16 17 18 18 18 18 17 17 15
13 13 13 12 11 10 9 7 5 4 2 1 1 2 2 3 3 3 3 3 2 3 3 3 3 4 4 5 7 8 8 9 10 11 12 13 14 15 16 17 17 18 19 19 19 18 18 17 16
12 12 13 12 11 9 8 6 4 3 2 2 2 2 3 4 4 4 4 4 3 4 4 4 4 5 5 6 7 8 9 10 12 12 13 14 15 16 17 18 19 20 20 19 19 19 19 18 17
11 11 11 11 10 8 6 5 4 3 2 2 3 3 4 4 5 5 4 4 4 5 5 5 6 6 7 8 8 10 11 12 13 14 15 16 17 18 19 20 20 21 21 21 21 20 20 19 19
11 11 10 10 9 8 6 5 5 4 4 4 4 4 4 5 5 5 5 5 6 6 6 7 8 8 8 9 10 11 13 14 15 16 17 17 18 19 20 21 22 22 23 23 23 22 22 21 20
Wind_Direction
226 225 221 210 198 203 204 175 148 160 174 180 184 186 179 174 178 211 237 250 13 9 8 1 356 352 350 344 339 339 338 336 333 331 329 327 326 324 320 317 313 309 304 300 294 290 285 279 276
226 226 214 208 201 200 191 176 146 148 163 171 180 174 163 165 184 212 243 279 23 12 6 0 350 345 344 343 338 338 337 333 332 330 327 327 326 323 320 317 314 311 306 300 295 292 287 281 276
217 215 206 204 205 202 195 187 163 145 152 159 165 161 159 173 178 190 195 29 5 7 1 1 356 348 344 341 339 338 335 333 330 327 324 323 321 318 316 315 314 312 307 302 298 294 288 282 279
214 214 210 210 204 194 188 178 160 147 158 164 154 153 154 170 184 186 174 347 7 9 3 2 358 348 341 338 338 336 335 335 330 326 323 321 320 318 316 315 313 311 307 303 301 299 292 285 280
217 212 211 210 200 188 185 173 156 151 159 161 150 148 159 169 175 181 172 31 23 14 5 360 355 342 339 338 341 337 332 332 331 326 323 321 320 318 317 316 314 312 308 304 302 300 295 289 283
217 210 213 212 201 194 185 167 155 158 162 169 166 163 175 178 167 164 155 141 1 5 4 359 353 346 343 338 334 332 331 331 331 329 325 323 321 319 319 318 316 313 309 306 303 301 297 293 286
214 210 213 213 194 188 183 172 168 163 168 173 176 178 175 152 146 156 156 181 316 357 357 354 348 345 340 336 334 334 333 332 330 328 327 327 326 325 325 323 321 317 313 311 306 302 298 293 289
212 210 210 209 195 191 183 182 181 168 162 165 174 180 184 173 159 147 158 189 265 342 336 342 341 335 335 333 333 334 333 332 331 331 331 329 327 326 328 327 325 322 319 315 312 307 302 295 291
211 211 211 208 201 197 194 187 177 170 175 191 189 191 193 196 208 182 102 254 339 339 328 327 331 327 329 330 329 331 332 334 335 336 335 334 331 330 330 330 329 326 322 319 315 314 310 302 294
209 209 210 207 202 198 196 197 196 178 184 195 194 207 218 219 218 222 214 193 264 300 313 312 314 317 322 323 325 329 333 338 340 341 339 338 336 334 332 331 330 327 324 321 317 315 312 306 296
207 209 207 201 194 189 186 180 179 175 174 181 202 210 227 231 240 234 230 255 264 276 291 295 301 311 317 321 323 328 335 341 343 344 343 341 339 337 334 333 333 331 327 323 320 317 313 307 299
205 206 207 193 184 183 184 183 188 188 179 191 196 191 245 259 253 255 252 260 271 274 283 291 308 318 322 326 325 329 338 342 343 346 347 344 342 341 339 338 337 336 331 327 323 321 317 309 301
201 196 192 188 184 186 183 187 189 200 196 200 202 213 258 263 247 254 254 262 274 280 281 290 307 313 318 322 324 329 338 342 344 347 348 346 344 344 343 341 341 339 335 330 326 322 319 313 304
201 200 194 186 188 191 185 183 193 205 210 210 213 225 249 252 243 246 260 275 282 292 294 296 297 303 310 316 320 326 334 341 348 350 350 349 348 348 348 347 346 345 344 340 334 330 324 318 310
193 192 188 184 185 189 185 187 198 205 217 223 228 239 247 252 246 246 257 269 279 291 301 297 288 300 305 314 321 326 335 344 352 354 353 352 351 352 353 354 352 350 349 345 341 336 330 325 318
189 189 189 187 190 191 191 192 196 200 206 215 220 232 248 252 248 236 248 266 276 291 296 293 284 294 299 315 323 328 336 344 352 357 356 355 354 354 355 355 353 351 351 348 345 341 337 331 323
183 186 192 193 191 193 196 197 194 200 209 214 212 227 243 246 237 229 245 260 274 289 292 297 299 299 303 312 328 338 341 343 350 355 356 355 355 355 355 354 354 352 351 351 349 346 343 338 330
181 183 185 187 185 183 186 193 196 198 199 200 202 215 226 225 234 243 248 253 262 274 287 296 301 307 311 320 331 344 345 346 348 351 353 353 354 354 354 355 354 354 353 352 351 349 345 341 336
184 182 181 180 182 180 181 187 189 190 181 184 196 208 216 218 233 246 248 253 245 251 272 284 296 313 317 328 331 341 342 341 342 344 346 348 350 352 352 353 354 354 354 352 351 349 346 343 340
183 183 179 179 179 180 189 185 190 192 186 185 186 194 203 212 226 236 241 238 226 233 240 272 301 314 319 324 332 332 341 340 340 340 340 344 346 349 351 352 353 355 355 353 351 350 347 343 340
184 182 177 180 178 181 190 184 184 186 182 183 188 188 198 210 221 221 221 219 216 218 222 248 300 318 320 322 325 330 335 343 346 345 345 347 348 349 351 352 354 355 355 353 350 349 347 343 338
175 173 172 177 187 187 187 178 173 168 174 188 196 199 205 217 228 229 223 219 214 216 227 248 281 312 325 327 323 331 337 344 347 347 348 348 349 350 350 351 352 352 352 351 349 347 346 343 340
173 171 172 173 181 188 183 178 165 159 155 169 192 203 213 227 226 225 220 217 214 223 237 259 285 310 322 328 330 333 336 341 344 341 342 342 344 347 348 349 350 351 350 349 347 346 344 342 338
174 174 175 176 182 185 182 175 152 144 146 150 170 197 209 220 224 224 225 217 213 228 245 261 283 303 315 326 335 338 337 337 339 340 339 340 340 342 344 345 346 347 348 349 347 345 342 339 338
179 180 180 177 175 173 176 167 150 137 139 144 170 204 211 217 222 217 219 221 215 223 244 254 275 299 316 321 326 329 331 331 333 337 338 339 339 339 340 340 340 341 342 344 345 344 342 339 336
181 185 187 181 176 176 177 168 163 149 145 160 188 214 234 235 233 232 240 249 237 232 244 253 271 288 310 316 320 322 326 329 331 333 334 336 337 338 338 338 337 336 335 336 337 338 338 339 336
178 182 183 182 183 187 188 175 162 161 159 185 208 234 247 242 235 236 249 256 258 252 255 265 279 291 306 313 319 322 325 328 326 327 329 330 331 332 332 332 333 332 331 330 331 331 331 332 332
180 182 189 191 195 199 202 192 177 187 199 222 232 236 244 248 249 252 255 254 263 266 270 278 287 298 307 314 316 320 321 324 324 323 323 324 326 327 327 327 327 327 326 326 325 325 324 324 324
178 184 191 198 204 207 212 204 202 211 226 240 244 244 247 250 255 260 264 265 267 271 279 285 289 297 303 307 312 315 315 319 321 322 323 323 323 323 323 323 323 322 322 322 321 320 319 318 317
188 197 205 213 218 225 237 227 219 233 247 259 261 259 257 255 259 266 273 276 272 273 280 286 289 295 298 302 307 310 312 315 316 318 320 321 322 322 321 320 320 319 319 319 318 317 315 314 312